This is the latest recevied weather packets stored in our database for station/object F6DEV-13. If no packets are shown the sender has not sent any weather packets the latest 10 day(s).
| Time | Temp. | Humidity | Pressure | Rain* | Wind** | Luminosity | Snow |
|---|---|---|---|---|---|---|---|
| 1778066132 | 15.56° C | 47% | 1010 hPa | 0 mm | - | - | - |
| 1778065845 | 15.56° C | 46% | 1010 hPa | 0 mm | - | - | - |
| 1778065534 | 16.11° C | 46% | 1010 hPa | 0 mm | - | - | - |
| 1778065241 | 16.67° C | 47% | 1010 hPa | 0 mm | - | - | - |
| 1778064937 | 16.67° C | 49% | 1010 hPa | 0 mm | - | - | - |
| 1778064716 | 16.11° C | 49% | 1010 hPa | 0 mm | - | - | - |
| 1778064632 | 16.11° C | 49% | 1010 hPa | 0 mm | - | - | - |
| 1778064305 | 16.67° C | 47% | 1010 hPa | 0 mm | - | - | - |
| 1778064006 | 17.22° C | 48% | 1010 hPa | 0 mm | - | - | - |
| 1778063675 | 17.22° C | 50% | 1010 hPa | 0 mm | - | - | - |
| 1778063350 | 16.11° C | 49% | 1010 hPa | 0 mm | - | - | - |
| 1778063044 | 15.56° C | 49% | 1010 hPa | 0 mm | - | - | - |
| 1778062756 | 15.56° C | 50% | 1010 hPa | 0 mm | - | - | - |
| 1778062446 | 15.56° C | 50% | 1010 hPa | 0 mm | - | - | - |
| 1778062170 | 15.56° C | 48% | 1010 hPa | 0 mm | - | - | - |
| 1778061820 | 16.11° C | 48% | 1010 hPa | 0 mm | - | - | - |
| 1778061487 | 16.11° C | 51% | 1010 hPa | 0 mm | - | - | - |
| 1778061160 | 15.56° C | 51% | 1010 hPa | 0 mm | - | - | - |
| 1778060829 | 15.56° C | 48% | 1010 hPa | 0 mm | - | - | - |
| 1778060563 | 15.56° C | 49% | 1010 hPa | 0 mm | - | - | - |
| 1778060531 | 15.56° C | 49% | 1010 hPa | 0 mm | - | - | - |
| 1778060193 | 15.56° C | 50% | 1010 hPa | 0 mm | - | - | - |
| 1778059866 | 15.56° C | 51% | 1010 hPa | 0 mm | - | - | - |
| 1778059534 | 15° C | 49% | 1010 hPa | 0 mm | - | - | - |
| 1778059207 | 15.56° C | 49% | 1010 hPa | 0 mm | - | - | - |
* Rain latest hour (hover to see other rain measurements)
** Current wind speed in m/s (hover to see current wind gust speed)